1,427,582개(3116/71380페이지)
LECTURE
번호 제목 글쓴이 조회 날짜
1365282 Top Five Tips For Designing Marketing St BarrettNedergaard5755 7 2022.04.22 18:04
1365281 login slot online paling baru dan link a 사진 KofoedHesselberg8501 7 2022.04.22 18:04
1365280 The RNA polymerase My partner and i tran DreierCormier0368 8 2022.04.22 18:03
1365279 Information Entryway Services Online EngelKofod7703 7 2022.04.22 18:03
1365278 Information Entryway Services Online EngelKofod7703 7 2022.04.22 18:03
1365277 Playing Multiple Tables - A Winning Poke SchneiderKlausen3171 5 2022.04.22 18:03
1365276 Tempat Judi Online Terbaik Dengan Hadiah 사진 DunnHenderson9473 5 2022.04.22 18:03
1365275 The very best Sports Betting Internet si GlerupVedel3302 5 2022.04.22 18:03
1365274 Spirituality At Work, Because You Can't BirchMcCurdy7138 4 2022.04.22 18:03
1365273 บาคาร่า เกมไพ่ที่ได้รับความนิยมที่ในชีวิ IbsenLogan9495 6 2022.04.22 18:03
1365272 Coping With Debt NorrisHolder3213 4 2022.04.22 18:03
1365271 agen slots online sah dengan dukungan pr 사진 HelmsHumphries3273 3 2022.04.22 18:03
1365270 Resep Bermain Poker Uang Asli Rupiah Di HowellMcCullough3784 6 2022.04.22 18:03
1365269 OTT Platforms' Marketing Strategy CamposAvila0623 4 2022.04.22 18:02
1365268 A new Population Pharmacokinetic Meta-An FriisDrew6177 3 2022.04.22 18:02
1365267 Time administration can help you get a g AguilarKold8012 3 2022.04.22 18:02
1365266 The rewards of finding out strong time m MeldgaardKofod8132 4 2022.04.22 18:02
1365265 Permainan Di Situs Judi Permainan Poker ToppGleason8130 4 2022.04.22 18:02
1365264 Permainan Di Situs Judi Permainan Poker ToppGleason8130 4 2022.04.22 18:02
1365263 How Does The Construction Project Manage NashPerry4928 3 2022.04.22 18:02